Location: Berg
(47.2344°N, 9.5296°E)
Time: 23:47:28
(UTC+00:00)

AAUSAT CUBESAT 2 - Pass Details

Date: 07 December 2021
Orbit: 571 x 586 km, 97.5° (Epoch: 19 January)

Event Time Altitude Azimuth Distance (km) Brightness Sun altitude
Rises 16:32:46 0° 200° (SSW) 2,767 ? -9.9°
Reaches altitude 10° 16:35:18 10° 216° (SW) 1,874 ? -10.3°
Maximum altitude 16:38:27 21° 267° (W) 1,294 ? -10.8°
Drops below altitude 10° 16:41:37 10° 318° (NW) 1,886 ? -11.3°
Sets 16:44:12 0° 335° (NNW) 2,791 ? -11.7°
